Flag for Australia Weather past 2 weeks in Cairns, Queensland, Australia

Now
81 °F

Partly sunny.


Feels Like: 84 °F
Forecast: 79 / 89 °F
Wind: 10 mph from Southeast

Location: Cairns Airport

Current Time: Dec 22, 2014 at 3:54:23 PM

Latest Report: Dec 22, 2014 at 3:00 PM


Visibility: N/A

Pressure: 29.83 "Hg

Humidity: 70%

Dew point: 70 °F

Location of CairnsLocation

Historic Weather in Cairns — Graph

°F

Cairns temperature yesterday

Maximum temperature yesterday: 91 °F (at 2:30 PM)
Minimum temperature yesterday: 77 °F (at 4:30 AM)
Average temperature yesterday: 84 °F

Past Weeks' High & Low Weather Summary

 TemperatureHumidityPressure
High93 °F (Dec 13, 1:00 PM)94% (Dec 8, 2:30 AM)29.95 "Hg (Dec 8, 2:30 AM)
Low73 °F (Dec 18, 3:30 AM)41% (Dec 14, 3:00 PM)29.56 "Hg (Dec 13, 3:30 PM)
Average83 °F73%29.80 "Hg
* Reported Dec 7 2:00 PM — Dec 22 2:30 PM, Cairns, Weather by CustomWeather, © 2014

Note: Actual official high and low records may vary slightly from our data, if they occured in-between our weather recording intervals... More about our weather records

Advertising

Cairns weather history for previous 24 hours

 ConditionsComfort  
Time TempWeatherWind HumidityBarometerVisibility
2:30 PM
Dec 22
79 °FScattered showers. Broken clouds.10 mph79%29.86 "HgN/A
2:00 PM79 °FScattered showers. Broken clouds.15 mph84%29.86 "HgN/A
1:30 PM81 °FSprinkles. Broken clouds.9 mph89%29.86 "Hg6 mi
1:00 PM79 °FRain showers. Broken clouds.14 mph89%29.86 "Hg3 mi
12:48 PM81 °FRain showers. Broken clouds.17 mph79%29.86 "Hg3 mi
12:30 PM82 °FMixture of precip. Broken clouds.7 mph70%29.86 "HgN/A
12:00 PM82 °FMixture of precip. Scattered clouds.16 mph74%29.86 "HgN/A
11:30 AM86 °FSprinkles. Scattered clouds.16 mph62%29.86 "HgN/A
11:00 AM90 °FScattered showers. Scattered clouds.13 mph52%29.89 "HgN/A
10:00 AM86 °FScattered showers. Scattered clouds.9 mph66%29.89 "HgN/A
9:30 AM84 °FScattered showers. Scattered clouds.10 mph70%29.89 "HgN/A
9:00 AM84 °FScattered showers. Scattered clouds.7 mph74%29.89 "HgN/A
8:30 AM82 °FScattered clouds.8 mph74%29.89 "HgN/A
8:00 AM81 °FScattered showers. Scattered clouds.8 mph74%29.86 "HgN/A
7:00 AM77 °FScattered showers. Scattered clouds.12 mph89%29.86 "HgN/A
6:30 AM79 °FSprinkles. Scattered clouds.10 mph79%29.86 "HgN/A
6:00 AM79 °FScattered showers. Scattered clouds.8 mph79%29.83 "HgN/A
5:30 AM79 °FScattered showers. Passing clouds.8 mph79%29.83 "HgN/A
5:00 AM75 °FScattered showers. Passing clouds.7 mph89%29.83 "HgN/A
4:30 AM75 °FScattered showers. Passing clouds.6 mph89%29.83 "HgN/A
4:00 AM77 °FSprinkles. Partly cloudy.12 mph83%29.83 "HgN/A
3:30 AM77 °FScattered showers. Passing clouds.12 mph79%29.80 "HgN/A
3:00 AM77 °FPassing clouds.8 mph79%29.83 "HgN/A
2:30 AM77 °FScattered showers. Passing clouds.10 mph83%29.83 "HgN/A
2:00 AM77 °FPassing clouds.9 mph83%29.83 "HgN/A
1:30 AM77 °FScattered showers. Passing clouds.7 mph79%29.83 "HgN/A
1:00 AM75 °FSprinkles. Partly cloudy.10 mph94%29.86 "HgN/A
12:30 AM75 °FSprinkles. Partly cloudy.16 mph89%29.89 "HgN/A
12:00 AM77 °FSprinkles. Partly cloudy.22 mph89%29.89 "Hg3 mi
11:30 PM
Dec 21
81 °FSprinkles. Passing clouds.8 mph74%29.89 "HgN/A
11:00 PM81 °FPassing clouds.8 mph74%29.89 "HgN/A
10:30 PM81 °FPassing clouds.8 mph74%29.86 "HgN/A
10:00 PM79 °FPassing clouds.8 mph84%29.86 "HgN/A
9:00 PM81 °FSprinkles. Passing clouds.10 mph79%29.86 "HgN/A
8:30 PM82 °FScattered showers. Passing clouds.13 mph74%29.86 "HgN/A
8:00 PM82 °FPassing clouds.12 mph74%29.86 "HgN/A
7:30 PM82 °FScattered showers. Passing clouds.13 mph74%29.86 "HgN/A
7:00 PM84 °FScattered showers. Passing clouds.10 mph70%29.83 "HgN/A
6:30 PM84 °FScattered showers. Scattered clouds.15 mph66%29.83 "HgN/A
6:00 PM84 °FScattered clouds.18 mph62%29.83 "HgN/A
5:30 PM86 °FScattered clouds.18 mph59%29.80 "HgN/A
5:00 PM88 °FScattered clouds.16 mph59%29.80 "HgN/A
4:30 PM88 °FPartly sunny.18 mph59%29.80 "HgN/A
4:00 PM88 °FPartly sunny.16 mph59%29.80 "HgN/A
3:30 PM90 °FPartly sunny.15 mph55%29.80 "HgN/A
3:00 PM90 °FPassing clouds.17 mph52%29.80 "HgN/A
Weather by CustomWeather, © 2014

See weather overviewHow to use our weather pages